Location: Asheville, NC
(35.6000°N, 82.5500°W)
Time: 04:38:55
(UTC-05:00)

Tiangong 2 - Pass Details

Date: 03 January 2018
Orbit: 384 x 390 km, 42.8° (Epoch: 17 January)

Event Time Altitude Azimuth Distance (km) Brightness Sun altitude
Rises 18:08:08 0° 297° (WNW) 2,264 5.6 -7.9°
Reaches altitude 10° 18:10:13 10° 299° (WNW) 1,407 4.5 -8.3°
Maximum altitude 18:13:23 79° 26° (NNE) 394 1.0 -8.9°
Drops below altitude 10° 18:16:32 10° 113° (ESE) 1,398 3.5 -9.5°
Enters shadow 18:17:11 - 114° (ESE) 1,661 3.9 -9.6°
